Weather History for Atka, AK

Change the Weather History Date:

Thursday, November 3, 2011

  Actual Average (PADK) Record (PADK)
Temperature  
Mean Temperature 44 °F -  
Max Temperature 46 °F 43 °F 53 °F (1964)
Min Temperature 41 °F 35 °F 29 °F (1983)
Degree Days  
Heating Degree Days 22    
Moisture  
Dew Point 37 °F    
Average Humidity 78    
Maximum Humidity 93    
Minimum Humidity 66    
Precipitation  
Precipitation 0.00 in - - ()
Sea Level Pressure  
Sea Level Pressure 29.51 in    
Wind  
Wind Speed 25 mph (West)    
Max Wind Speed 40 mph    
Max Gust Speed 55 mph    
Visibility 7 miles    
Events      
Averages and records for this station are not official NWS values.
T = Trace of Precipitation, MM = Missing Value Source: NWS Daily Summary

Daily Weather History Graph

Daily Weather History Graph

Search for Another Location

Airport:

Trip Planner

Search our weather history database for the weather conditions in past years. The results will help you decide how hot, cold, wet, or windy it might be!

Date:

Astronomy

Nov. 03, 2011 Rise Set
Actual Time 9:35 AM HADT 7:03 PM HADT
Civil Twilight 8:59 AM HADT 7:40 PM HADT
Nautical Twilight 8:19 AM HADT 8:20 PM HADT
Astronomical Twilight 7:40 AM HADT 8:59 PM HADT
Moon 4:17 PM HADT (11/3) 2:14 AM HADT (11/3)
Length of Visible Light 10h 40m
Length of Day
9h 28m
First Quarter, 62% of the Moon is Illuminated
Nov 3
First Quarter
Nov 10
Full
Nov 18
Last Quarter
Nov 24
New
Dec 1
First Quarter

Hourly Weather History & Observations

Time (HADT) Temp. Windchill Dew Point Humidity Pressure Visibility Wind Dir Wind Speed Gust Speed Precip Events Conditions
12:16 AM 44.6 °F 37.4 °F 42.8 °F 93% 29.09 in 5.0 mi SSW 16.1 mph 21.9 mph N/A   Overcast
12:36 AM 46.4 °F 39.5 °F 42.8 °F 87% 29.09 in 10.0 mi SSW 17.3 mph 26.5 mph N/A   Overcast
12:56 AM 46.4 °F 39.5 °F 42.8 °F 87% 29.10 in 10.0 mi SSW 17.3 mph 20.7 mph N/A   Mostly Cloudy
1:16 AM 44.6 °F 37.4 °F 41.0 °F 87% 29.10 in 10.0 mi SSW 16.1 mph 26.5 mph N/A   Mostly Cloudy
1:36 AM 44.6 °F 36.4 °F 39.2 °F 81% 29.11 in 10.0 mi SSW 20.7 mph 26.5 mph N/A   Overcast
1:56 AM 42.8 °F 35.1 °F 39.2 °F 87% 29.12 in 10.0 mi SW 16.1 mph - N/A   Overcast
2:16 AM 44.6 °F 40.2 °F 39.2 °F 81% 29.13 in 10.0 mi West 8.1 mph - N/A   Overcast
2:36 AM 44.6 °F 36.4 °F 39.2 °F 81% 29.14 in 5.0 mi West 20.7 mph 26.5 mph N/A   Overcast
2:56 AM 44.6 °F 36.4 °F 39.2 °F 81% 29.15 in 4.0 mi West 20.7 mph 26.5 mph N/A   Overcast
3:16 AM 44.6 °F 35.9 °F 39.2 °F 81% 29.16 in 4.0 mi West 23.0 mph 28.8 mph N/A   Overcast
3:36 AM 44.6 °F 35.5 °F 39.2 °F 81% 29.17 in 2.5 mi West 25.3 mph 36.8 mph N/A   Overcast
3:56 AM 42.8 °F 33.1 °F 39.2 °F 87% 29.19 in 2.0 mi West 25.3 mph 36.8 mph N/A   Overcast
4:16 AM 42.8 °F 32.9 °F 39.2 °F 87% 29.20 in 2.0 mi West 26.5 mph 40.3 mph N/A   Overcast
4:36 AM 42.8 °F 32.3 °F 39.2 °F 87% 29.22 in 2.0 mi West 29.9 mph 55.2 mph N/A   Overcast
4:56 AM 42.8 °F 31.9 °F 39.2 °F 87% 29.24 in 2.0 mi West 32.2 mph 51.8 mph N/A   Overcast
5:16 AM - - - N/A% 29.26 in 2.5 mi West 36.8 mph 50.6 mph N/A   Overcast
5:36 AM 42.8 °F 31.9 °F 37.4 °F 81% 29.28 in 7.0 mi West 32.2 mph 43.7 mph N/A   Overcast
5:56 AM 42.8 °F 31.3 °F 37.4 °F 81% 29.30 in 6.0 mi WNW 36.8 mph 46.0 mph N/A   Overcast
6:16 AM 42.8 °F 31.8 °F 37.4 °F 81% 29.32 in 7.0 mi WNW 33.4 mph 49.5 mph N/A   Overcast
6:36 AM 42.8 °F 31.6 °F 37.4 °F 81% 29.35 in 9.0 mi West 34.5 mph 44.9 mph N/A   Overcast
6:56 AM 42.8 °F 31.9 °F 37.4 °F 81% 29.37 in 9.0 mi West 32.2 mph 46.0 mph N/A   Overcast
7:16 AM - - - N/A% 29.39 in 10.0 mi West 40.3 mph 48.3 mph N/A   Overcast
7:36 AM 42.8 °F 31.6 °F 35.6 °F 76% 29.42 in 8.0 mi West 34.5 mph 43.7 mph N/A   Overcast
7:56 AM - - - N/A% 29.43 in 9.0 mi West 35.7 mph 50.6 mph N/A   Mostly Cloudy
8:16 AM - - - N/A% 29.46 in 9.0 mi West 38.0 mph 46.0 mph N/A   Overcast
8:36 AM - - - N/A% 29.48 in 8.0 mi West 34.5 mph 48.3 mph N/A   Overcast
8:56 AM 41.0 °F 29.7 °F 35.6 °F 81% 29.51 in 5.0 mi West 31.1 mph 41.4 mph N/A   Overcast
9:16 AM - - - N/A% 29.51 in 8.0 mi West 34.5 mph 50.6 mph N/A   Mostly Cloudy
9:36 AM - - - N/A% 29.53 in 9.0 mi WNW 35.7 mph 49.5 mph N/A   Overcast
9:56 AM - - - N/A% 29.56 in 2.5 mi WNW 31.1 mph 49.5 mph N/A   Overcast
10:16 AM 42.8 °F 31.9 °F 35.6 °F 76% 29.59 in 7.0 mi WNW 32.2 mph 48.3 mph N/A   Mostly Cloudy
10:36 AM 42.8 °F 32.5 °F 35.6 °F 76% 29.62 in 7.0 mi WNW 28.8 mph 41.4 mph N/A   Mostly Cloudy
10:56 AM 42.8 °F 32.1 °F 35.6 °F 76% 29.63 in 8.0 mi West 31.1 mph 47.2 mph N/A   Overcast
11:16 AM 42.8 °F 32.7 °F 35.6 °F 76% 29.65 in 7.0 mi West 27.6 mph 44.9 mph N/A   Overcast
11:36 AM 42.8 °F 33.3 °F 35.6 °F 76% 29.67 in 8.0 mi WNW 24.2 mph 41.4 mph N/A   Overcast
11:56 AM 42.8 °F 32.5 °F 35.6 °F 76% 29.68 in 7.0 mi West 28.8 mph 47.2 mph N/A   Overcast
12:16 PM 42.8 °F 31.9 °F 35.6 °F 76% 29.70 in 7.0 mi WNW 32.2 mph 44.9 mph N/A   Overcast
12:36 PM 42.8 °F 32.3 °F 35.6 °F 76% 29.73 in 7.0 mi WNW 29.9 mph 38.0 mph N/A   Overcast
12:56 PM 42.8 °F 31.9 °F 35.6 °F 76% 29.74 in 8.0 mi West 32.2 mph 48.3 mph N/A   Overcast
1:16 PM 44.6 °F 34.1 °F 35.6 °F 71% 29.75 in 8.0 mi West 34.5 mph 41.4 mph N/A   Mostly Cloudy
1:36 PM 42.8 °F 32.3 °F 33.8 °F 70% 29.76 in 6.0 mi WNW 29.9 mph 48.3 mph N/A   Mostly Cloudy
1:56 PM 42.8 °F 32.1 °F 35.6 °F 76% 29.78 in 5.0 mi West 31.1 mph 42.6 mph N/A   Mostly Cloudy
2:16 PM 42.8 °F 32.7 °F 35.6 °F 76% 29.80 in 7.0 mi West 27.6 mph 39.1 mph N/A   Mostly Cloudy
2:36 PM 44.6 °F 35.1 °F 35.6 °F 71% 29.81 in 8.0 mi West 27.6 mph 41.4 mph N/A   Mostly Cloudy
2:56 PM 42.8 °F 32.7 °F 35.6 °F 76% 29.83 in 8.0 mi West 27.6 mph 38.0 mph N/A   Overcast
3:16 PM 44.6 °F 34.4 °F 35.6 °F 71% 29.84 in 9.0 mi West 32.2 mph 41.4 mph N/A   Overcast
3:36 PM 44.6 °F 35.1 °F 33.8 °F 66% 29.87 in 9.0 mi West 27.6 mph 40.3 mph N/A   Overcast
3:56 PM 42.8 °F 33.5 °F 33.8 °F 70% 29.88 in 7.0 mi WNW 23.0 mph 43.7 mph N/A   Overcast
4:16 PM 42.8 °F 32.7 °F 33.8 °F 70% 29.89 in 5.0 mi West 27.6 mph 43.7 mph N/A   Overcast
4:36 PM 42.8 °F 32.9 °F 35.6 °F 76% 29.90 in 9.0 mi West 26.5 mph 36.8 mph N/A   Overcast
5:16 PM 42.8 °F 34.8 °F 33.8 °F 70% 29.93 in 9.0 mi West 17.3 mph 34.5 mph N/A   Mostly Cloudy
5:36 PM 42.8 °F 32.9 °F 33.8 °F 70% 29.94 in 10.0 mi West 26.5 mph 39.1 mph N/A   Overcast
5:56 PM 42.8 °F 32.9 °F 33.8 °F 70% 29.96 in 9.0 mi West 26.5 mph 36.8 mph N/A   Mostly Cloudy
6:16 PM 42.8 °F 33.3 °F 33.8 °F 70% 29.98 in 10.0 mi West 24.2 mph 36.8 mph N/A   Overcast
6:36 PM 39.2 °F 27.6 °F 33.8 °F 81% 29.99 in 6.0 mi WNW 28.8 mph 41.4 mph N/A   Mostly Cloudy
6:56 PM 41.0 °F 31.1 °F 33.8 °F 76% 30.00 in 10.0 mi West 23.0 mph 31.1 mph N/A   Mostly Cloudy
7:16 PM 41.0 °F 31.4 °F 33.8 °F 76% 30.02 in 10.0 mi WNW 21.9 mph 28.8 mph N/A   Mostly Cloudy
7:56 PM 42.8 °F 34.5 °F 33.8 °F 70% 30.04 in 10.0 mi West 18.4 mph 24.2 mph N/A   Scattered Clouds
8:16 PM 41.0 °F 31.9 °F 33.8 °F 76% 30.05 in 10.0 mi West 19.6 mph 24.2 mph N/A   Partly Cloudy
8:36 PM 41.0 °F 33.1 °F 33.8 °F 76% 30.06 in 10.0 mi West 15.0 mph - N/A   Partly Cloudy
8:56 PM 42.8 °F 34.8 °F 32.0 °F 66% 30.07 in 10.0 mi West 17.3 mph 25.3 mph N/A   Mostly Cloudy
9:16 PM 41.0 °F 34.3 °F 32.0 °F 70% 30.08 in 10.0 mi West 11.5 mph 20.7 mph N/A   Mostly Cloudy
9:36 PM 42.8 °F 35.4 °F 33.8 °F 70% 30.09 in 10.0 mi West 15.0 mph - N/A   Overcast
9:56 PM 42.8 °F 36.2 °F 32.0 °F 66% 30.09 in 10.0 mi West 12.7 mph - N/A   Overcast
10:16 PM 41.0 °F 34.3 °F 32.0 °F 70% 30.09 in 10.0 mi West 11.5 mph - N/A   Scattered Clouds
10:36 PM 39.2 °F 33.0 °F 32.0 °F 75% 30.10 in 10.0 mi West 9.2 mph - N/A   Scattered Clouds
10:56 PM 39.2 °F 33.0 °F 30.2 °F 70% 30.11 in 10.0 mi West 9.2 mph - N/A   Mostly Cloudy
11:16 PM 39.2 °F 33.6 °F 30.2 °F 70% 30.11 in 10.0 mi SW 8.1 mph - N/A   Overcast
11:36 PM 39.2 °F 33.6 °F 32.0 °F 75% 30.11 in 10.0 mi SW 8.1 mph - N/A   Overcast
11:56 PM 41.0 °F 35.8 °F 33.8 °F 76% 30.11 in 10.0 mi SSW 8.1 mph - N/A   Overcast